Regional Weather Roundup
Issued by NWS Upton, NY

Current Version | Previous Version | Graphics & Text | Print | Product List | Glossary Off
Versions: 1 2 3 4 5 6 7 8 9 10 11 12 13 14 15 16 17 18 19 20 21 22 23 24 25 26 27 28 29 30 31 32 33 34 35 36 37 38 39 40 41 42 43 44 45 46 47 48 49 50

000
ASUS41 KOKX 040204
RWROKX

REGIONAL WEATHER ROUNDUP
NATIONAL WEATHER SERVICE NEW YORK NY
1000 PM EDT THU SEP 03 2015

NOTE: "FAIR" INDICATES FEW OR NO CLOUDS BELOW 12,000 FEET WITH NO
SIGNIFICANT WEATHER AND/OR OBSTRUCTIONS TO VISIBILITY.

NYZ071-072-176-178-NJZ106-104-040300-
NEW YORK CITY METRO AREA


CITY           SKY/WX    TMP DP  RH WIND       PRES   REMARKS
CENTRAL PARK   PTCLDY    83  65  54 CALM      29.91R
LAGUARDIA APRT MOCLDY    84  66  54 VRB5      29.88R
KENNEDY INTL   MOCLDY    78  71  79 CALM      29.90R
NEWARK/LIBERTY MOCLDY    83  68  60 SW6       29.88R
BRNX BOT. GARD   N/A     79  66  65 SE1       29.88S
TETERBORO      MOCLDY    81  64  56 CALM      29.87R
$$

NYZ177-179-078>081-040300-
LONG ISLAND NEW YORK

CITY           SKY/WX    TMP DP  RH WIND       PRES   REMARKS
FARMINGDALE    PTCLDY    79  70  74 W3        29.89R
ISLIP          MOCLDY    76  71  85 SW3       29.88R
SHIRLEY        PTCLDY    75  72  90 CALM      29.89R FOG
WESTHAMPTON    PTCLDY    72  70  93 CALM      29.91R FOG
MONTAUK POINT    N/A     76  73  91 CALM      29.90R
$$

NYZ052-065-067-040300-
HUDSON VALLEY

CITY           SKY/WX    TMP DP  RH WIND       PRES   REMARKS
WHITE PLAINS   PTCLDY    74  67  78 CALM      29.91R
NEWBURGH       PTCLDY    77  66  69 CALM      29.93R
MONTGOMERY     MOCLDY    76  66  71 CALM      29.92R
POUGHKEEPSIE   PTCLDY    79  67  66 NE5       29.90R
ALBANY         PTCLDY    73  66  78 N5        29.94R
$$

NJZ001-105-106-008-010-013-015-019>022-104-040300-
NEW JERSEY

CITY           SKY/WX    TMP DP  RH WIND       PRES   REMARKS
NEWARK/LIBERTY MOCLDY    83  68  60 SW6       29.88R
TETERBORO      MOCLDY    81  64  56 CALM      29.87R
CALDWELL       MOCLDY    79  65  62 CALM      29.89R
MORRISTOWN     NOT AVBL
SOMERVILLE     MOCLDY    77  68  73 CALM      29.87R
SUSSEX         MOCLDY    77  65  66 N10       29.94R THUNDER
ANDOVER          N/A     72  70  93 CALM      29.93R
TRENTON        CLOUDY    80  68  66 SW3       29.88R
MILLVILLE      CLEAR     73  70  90 CALM      29.89R FOG
ATLANTIC CITY  CLEAR     72  67  84 CALM      29.89R
WRIGHTSTOWN    MOCLDY    74  69  84 S3        29.86S
TOMS RIVER     PTCLDY    72  64  78 CALM      29.89S
BELMAR         MOCLDY    77  64  65 SW5       29.89S
$$

PAZ047>061-062-071-040300-
EASTERN PENNSYLVANIA

CITY           SKY/WX    TMP DP  RH WIND       PRES   REMARKS
PHILADELPHIA   MOCLDY    83  69  62 S7        29.89R
ALLENTOWN      MOCLDY    75  66  73 CALM      29.91R
SCRANTON       MOCLDY    75  66  73 E5        29.95S
$$

CTZ002-004>006-009-010-012-RIZ004-006-007-MAZ004-011-015-040300-
SOUTHERN NEW ENGLAND
 IN CT

CITY           SKY/WX    TMP DP  RH WIND       PRES   REMARKS
BRADLEY INTL   MOCLDY    76  67  73 N8        29.89R
HARTFORD       PTCLDY    81  69  67 N7        29.89R
DANBURY        PTCLDY    70  61  73 SW5       29.92R
WTRBRY/OXFORD  PTCLDY    72  63  73 E3        29.94R
BRIDGEPORT     PTCLDY    80  68  66 SW5       29.89R
MERIDEN        PTCLDY    74  66  76 CALM      29.90R
NEW HAVEN      PTCLDY    74  66  76 CALM      29.89R
CHESTER        NOT AVBL
GROTON         PTCLDY    72  72 100 N3        29.89R FOG
WILLIMANTIC    MOCLDY    76  69  79 CALM      29.90R

 IN RI

CITY           SKY/WX    TMP DP  RH WIND       PRES   REMARKS
PROVIDENCE     CLOUDY    76  72  87 CALM      29.90R FOG
BLOCK ISLAND   MOCLDY    73  73 100 CALM      29.90R
WESTERLY       PTCLDY    72  70  93 CALM      29.90R FOG

 IN MA

CITY           SKY/WX    TMP DP  RH WIND       PRES   REMARKS
BOSTON         CLOUDY    73  68  84 NE5       29.91R
WORCESTER      CLOUDY    76  65  68 E3        29.95R THUNDER
WESTFIELD      PTCLDY    72  66  81 N6        29.91R
PROVINCETOWN     N/A     70  63  78 E5        29.90R
NANTUCKET      CLOUDY    70  68  93 CALM      29.89S FOG
$$

ANZ330-335-338-340-345-350-353-355-040300-
COASTAL MARINE OBSERVATIONS


STATION/POSITION TIME  SKY/WX   TEMP    WIND        PRES    VSBY  WAVE
                                AIR SEA DIR/SP/G                  HT/PER
                 (UTC)          (F)     (DEG/KT/KT) (MB)    (MI)  (FT/S)
NY HARB ENTRANCE 0050            78 78  210/  6/  8 1010.9          1/ 8
4S FIRE IS       NOT AVBL
20S FIRE ISLAND  0050            76 77  190/  6/  6 1010.8          1/ 6
GREAT SOUTH BAY  0100            78 80  250/  4/  4   N/A
23SW MTP         0150            75 74  250/  2/  4 1011.7          1/12
HUDSON CANYON    NOT AVBL
KINGS POINT      0100            81 76  180/  3/  5 1010.6
EXECUTION ROCKS  0100            79     200/  4/  6   N/A
CENTRAL LI SOUND NOT AVBL
EASTERN LI SOUND 0100            73 71  270/  6/  6   N/A
ROBBINS REEF     0100            80     170/  5/  6 1010.5
$$


>>>>>>>>>>>>>>>>>>>>>>>>>>>> KEY <<<<<<<<<<<<<<<<<<<<<<<<<<<
>                                                          <
>     SKY/WX - SKY CONDITION/PRESENT WEATHER               <
>     TMP    - TEMPERATURE IN FAHRENHEIT                   <
>     DP     - DEWPOINT IN FAHRENHEIT                      <
>     RH     - RELATIVE HUMIDITY IN PERCENT                <
>     WIND   - DIRECTION AND SPEED IN MPH                  <
>     PRES   - MEAN SEA LEVEL PRESSURE IN INCHES OF HG     <
>     WCI    - WIND CHILL INDEX                            <
>     VSB    - VISIBILITY IN MILES                         <
>     HX     - HEAT INDEX                                  <
>     TC     - TEMPERATURE IN CELSIUS                      <
>     VRB    - VARIABLE WIND DIRECTION                     <
>                                                          <
>>>>>>>>>>>>>>>>>>>>>>>>>>>> KEY <<<<<<<<<<<<<<<<<<<<<<<<<<<




USA.gov is the U.S. government's official web portal to all federal, state and local government web resources and services.